owner,sensor,date,latitude,longitude,vertical_datum,sea_water_temperature,qcFlag
Chevron,ioos:station:wmo:42372:2,2022-01-01T00:09:00Z,27.7790,-90.5190,12.6,25.3,11111222
Chevron,ioos:station:wmo:42372:2,2022-01-01T00:19:00Z,27.7790,-90.5190,12.6,25.3,11111222
Chevron,ioos:station:wmo:42372:2,2022-01-01T00:29:00Z,27.7790,-90.5190,12.7,25.3,11111222
Chevron,ioos:station:wmo:42372:2,2022-01-01T00:39:00Z,27.7790,-90.5190,12.4,25.3,11111222
Chevron,ioos:station:wmo:42372:2,2022-01-01T00:49:00Z,27.7790,-90.5190,12.5,25.3,11111222
Chevron,ioos:station:wmo:42372:2,2022-01-01T00:59:00Z,27.7790,-90.5190,12.5,25.3,11111222
Chevron,ioos:station:wmo:42372:2,2022-01-01T01:09:00Z,27.7790,-90.5190,12.5,25.3,11111222
Chevron,ioos:station:wmo:42372:2,2022-01-01T01:19:00Z,27.7790,-90.5190,12.5,25.3,11111222
Chevron,ioos:station:wmo:42372:2,2022-01-01T01:29:00Z,27.7790,-90.5190,12.5,25.2,11111222
Chevron,ioos:station:wmo:42372:2,2022-01-01T01:39:00Z,27.7790,-90.5190,12.5,25.2,11111222
Chevron,ioos:station:wmo:42372:2,2022-01-01T01:49:00Z,27.7790,-90.5190,12.5,25.2,11111222
Chevron,ioos:station:wmo:42372:2,2022-01-01T01:59:00Z,27.7790,-90.5190,12.6,25.3,11111222
Chevron,ioos:station:wmo:42372:2,2022-01-01T02:09:00Z,27.7790,-90.5190,12.4,25.3,11111222
Chevron,ioos:station:wmo:42372:2,2022-01-01T02:19:00Z,27.7790,-90.5190,12.5,25.3,11111222
Chevron,ioos:station:wmo:42372:2,2022-01-01T02:29:00Z,27.7790,-90.5190,12.5,25.3,11111222
Chevron,ioos:station:wmo:42372:2,2022-01-01T02:39:00Z,27.7790,-90.5190,12.4,25.3,11111222
Chevron,ioos:station:wmo:42372:2,2022-01-01T02:49:00Z,27.7790,-90.5190,12.3,25.3,11111222
Chevron,ioos:station:wmo:42372:2,2022-01-01T02:59:00Z,27.7790,-90.5190,12.6,25.3,11111222
Chevron,ioos:station:wmo:42372:2,2022-01-01T03:09:00Z,27.7790,-90.5190,12.3,25.3,11111222
Chevron,ioos:station:wmo:42372:2,2022-01-01T03:19:00Z,27.7790,-90.5190,12.5,25.3,11111222
Chevron,ioos:station:wmo:42372:2,2022-01-01T03:29:00Z,27.7790,-90.5190,12.5,25.3,11111222
Chevron,ioos:station:wmo:42372:2,2022-01-01T03:39:00Z,27.7790,-90.5190,12.4,25.3,11111222
Chevron,ioos:station:wmo:42372:2,2022-01-01T03:49:00Z,27.7790,-90.5190,12.5,25.3,11111222
Chevron,ioos:station:wmo:42372:2,2022-01-01T03:59:00Z,27.7790,-90.5190,12.3,25.3,11111222
Chevron,ioos:station:wmo:42372:2,2022-01-01T04:09:00Z,27.7790,-90.5190,12.5,25.3,11111222
Chevron,ioos:station:wmo:42372:2,2022-01-01T04:19:00Z,27.7790,-90.5190,12.4,25.3,11111222
Chevron,ioos:station:wmo:42372:2,2022-01-01T04:29:00Z,27.7790,-90.5190,12.3,25.2,11111222
Chevron,ioos:station:wmo:42372:2,2022-01-01T04:39:00Z,27.7790,-90.5190,12.4,25.3,11111222
Chevron,ioos:station:wmo:42372:2,2022-01-01T04:49:00Z,27.7790,-90.5190,12.4,25.2,11111222
Chevron,ioos:station:wmo:42372:2,2022-01-01T04:59:00Z,27.7790,-90.5190,12.4,25.2,11111222
Chevron,ioos:station:wmo:42372:2,2022-01-01T05:09:00Z,27.7790,-90.5190,12.4,25.2,11111222
Chevron,ioos:station:wmo:42372:2,2022-01-01T05:19:00Z,27.7790,-90.5190,12.3,25.2,11111222
Chevron,ioos:station:wmo:42372:2,2022-01-01T05:29:00Z,27.7790,-90.5190,12.4,25.2,11111222
Chevron,ioos:station:wmo:42372:2,2022-01-01T05:39:00Z,27.7790,-90.5190,12.3,25.2,11111222
Chevron,ioos:station:wmo:42372:2,2022-01-01T05:49:00Z,27.7790,-90.5190,12.4,25.2,11111222
Chevron,ioos:station:wmo:42372:2,2022-01-01T05:59:00Z,27.7790,-90.5190,12.4,25.2,11111222
Chevron,ioos:station:wmo:42372:2,2022-01-01T06:09:00Z,27.7790,-90.5190,12.4,25.2,11111222
Chevron,ioos:station:wmo:42372:2,2022-01-01T06:19:00Z,27.7790,-90.5190,12.3,25.2,11111222
Chevron,ioos:station:wmo:42372:2,2022-01-01T06:29:00Z,27.7790,-90.5190,12.3,25.2,11111222
Chevron,ioos:station:wmo:42372:2,2022-01-01T06:39:00Z,27.7790,-90.5190,12.4,25.2,11111222
Chevron,ioos:station:wmo:42372:2,2022-01-01T06:49:00Z,27.7790,-90.5190,12.3,25.2,11111222
Chevron,ioos:station:wmo:42372:2,2022-01-01T06:59:00Z,27.7790,-90.5190,12.4,25.2,11111222
Chevron,ioos:station:wmo:42372:2,2022-01-01T07:09:00Z,27.7790,-90.5190,12.3,25.2,11111222
Chevron,ioos:station:wmo:42372:2,2022-01-01T07:19:00Z,27.7790,-90.5190,12.3,25.2,11111222
Chevron,ioos:station:wmo:42372:2,2022-01-01T07:29:00Z,27.7790,-90.5190,12.2,25.2,11111222
Chevron,ioos:station:wmo:42372:2,2022-01-01T07:39:00Z,27.7790,-90.5190,12.4,25.2,11111222
Chevron,ioos:station:wmo:42372:2,2022-01-01T07:49:00Z,27.7790,-90.5190,12.3,25.2,11111222
Chevron,ioos:station:wmo:42372:2,2022-01-01T07:59:00Z,27.7790,-90.5190,12.3,25.2,11111222
Chevron,ioos:station:wmo:42372:2,2022-01-01T08:09:00Z,27.7790,-90.5190,12.4,25.3,11111222
Chevron,ioos:station:wmo:42372:2,2022-01-01T08:19:00Z,27.7790,-90.5190,12.2,25.3,11111222
Chevron,ioos:station:wmo:42372:2,2022-01-01T08:29:00Z,27.7790,-90.5190,12.2,25.3,11111222
Chevron,ioos:station:wmo:42372:2,2022-01-01T08:39:00Z,27.7790,-90.5190,12.4,25.3,11111222
Chevron,ioos:station:wmo:42372:2,2022-01-01T08:49:00Z,27.7790,-90.5190,12.3,25.3,11111222
Chevron,ioos:station:wmo:42372:2,2022-01-01T08:59:00Z,27.7790,-90.5190,12.2,25.3,11111222
Chevron,ioos:station:wmo:42372:2,2022-01-01T09:09:00Z,27.7790,-90.5190,12.3,25.3,11111222
Chevron,ioos:station:wmo:42372:2,2022-01-01T09:19:00Z,27.7790,-90.5190,12.1,25.3,11111222
Chevron,ioos:station:wmo:42372:2,2022-01-01T09:29:00Z,27.7790,-90.5190,12.2,25.3,11111222
Chevron,ioos:station:wmo:42372:2,2022-01-01T09:39:00Z,27.7790,-90.5190,12.1,25.3,11111222
Chevron,ioos:station:wmo:42372:2,2022-01-01T09:49:00Z,27.7790,-90.5190,12.2,25.3,11111222
Chevron,ioos:station:wmo:42372:2,2022-01-01T09:59:00Z,27.7790,-90.5190,12.1,25.3,11111222
Chevron,ioos:station:wmo:42372:2,2022-01-01T10:09:00Z,27.7790,-90.5190,12.0,25.3,11111222
Chevron,ioos:station:wmo:42372:2,2022-01-01T10:19:00Z,27.7790,-90.5190,12.1,25.3,11111222
Chevron,ioos:station:wmo:42372:2,2022-01-01T10:29:00Z,27.7790,-90.5190,12.2,25.3,11111222
Chevron,ioos:station:wmo:42372:2,2022-01-01T10:39:00Z,27.7790,-90.5190,12.1,25.3,11111222
Chevron,ioos:station:wmo:42372:2,2022-01-01T10:49:00Z,27.7790,-90.5190,12.2,25.2,11111222
Chevron,ioos:station:wmo:42372:2,2022-01-01T10:59:00Z,27.7790,-90.5190,12.2,25.2,11111222
Chevron,ioos:station:wmo:42372:2,2022-01-01T11:09:00Z,27.7790,-90.5190,12.1,25.2,11111222
Chevron,ioos:station:wmo:42372:2,2022-01-01T11:19:00Z,27.7790,-90.5190,12.1,25.2,11111222
Chevron,ioos:station:wmo:42372:2,2022-01-01T11:29:00Z,27.7790,-90.5190,12.1,25.2,11111222
Chevron,ioos:station:wmo:42372:2,2022-01-01T11:39:00Z,27.7790,-90.5190,12.2,25.2,11111222
Chevron,ioos:station:wmo:42372:2,2022-01-01T11:49:00Z,27.7790,-90.5190,12.2,25.2,11111222
Chevron,ioos:station:wmo:42372:2,2022-01-01T11:59:00Z,27.7790,-90.5190,12.2,25.2,11111222
Chevron,ioos:station:wmo:42372:2,2022-01-01T12:09:00Z,27.7790,-90.5190,12.1,25.2,11111222
Chevron,ioos:station:wmo:42372:2,2022-01-01T12:19:00Z,27.7790,-90.5190,12.2,25.2,11111222
Chevron,ioos:station:wmo:42372:2,2022-01-01T12:29:00Z,27.7790,-90.5190,12.3,25.2,11111222
Chevron,ioos:station:wmo:42372:2,2022-01-01T12:39:00Z,27.7790,-90.5190,12.4,25.2,11111222
Chevron,ioos:station:wmo:42372:2,2022-01-01T12:49:00Z,27.7790,-90.5190,12.3,25.2,11111222
Chevron,ioos:station:wmo:42372:2,2022-01-01T12:59:00Z,27.7790,-90.5190,12.4,25.2,11111222
Chevron,ioos:station:wmo:42372:2,2022-01-01T13:09:00Z,27.7790,-90.5190,12.4,25.2,11111222
Chevron,ioos:station:wmo:42372:2,2022-01-01T13:19:00Z,27.7790,-90.5190,12.5,25.2,11111222
Chevron,ioos:station:wmo:42372:2,2022-01-01T13:29:00Z,27.7790,-90.5190,12.5,25.2,11111222
Chevron,ioos:station:wmo:42372:2,2022-01-01T13:39:00Z,27.7790,-90.5190,12.6,25.2,11111222
Chevron,ioos:station:wmo:42372:2,2022-01-01T13:49:00Z,27.7790,-90.5190,12.5,25.2,11111222
Chevron,ioos:station:wmo:42372:2,2022-01-01T13:59:00Z,27.7790,-90.5190,12.5,25.2,11111222
Chevron,ioos:station:wmo:42372:2,2022-01-01T14:09:00Z,27.7790,-90.5190,12.5,25.2,11111222
Chevron,ioos:station:wmo:42372:2,2022-01-01T14:19:00Z,27.7790,-90.5190,12.6,25.2,11111222
Chevron,ioos:station:wmo:42372:2,2022-01-01T14:29:00Z,27.7790,-90.5190,12.4,25.2,11111222
Chevron,ioos:station:wmo:42372:2,2022-01-01T14:39:00Z,27.7790,-90.5190,12.6,25.2,11111222
Chevron,ioos:station:wmo:42372:2,2022-01-01T14:49:00Z,27.7790,-90.5190,12.7,25.2,11111222
Chevron,ioos:station:wmo:42372:2,2022-01-01T14:59:00Z,27.7790,-90.5190,12.6,25.2,11111222
Chevron,ioos:station:wmo:42372:2,2022-01-01T15:09:00Z,27.7790,-90.5190,12.6,25.2,11111222
Chevron,ioos:station:wmo:42372:2,2022-01-01T15:19:00Z,27.7790,-90.5190,12.4,25.2,11111222
Chevron,ioos:station:wmo:42372:2,2022-01-01T15:29:00Z,27.7790,-90.5190,12.5,25.2,11111222
Chevron,ioos:station:wmo:42372:2,2022-01-01T15:39:00Z,27.7790,-90.5190,12.5,25.2,11111222
Chevron,ioos:station:wmo:42372:2,2022-01-01T15:49:00Z,27.7790,-90.5190,12.5,25.2,11111222
Chevron,ioos:station:wmo:42372:2,2022-01-01T15:59:00Z,27.7790,-90.5190,12.5,25.2,11111222
Chevron,ioos:station:wmo:42372:2,2022-01-01T16:09:00Z,27.7790,-90.5190,12.6,25.2,11111222
Chevron,ioos:station:wmo:42372:2,2022-01-01T16:19:00Z,27.7790,-90.5190,12.5,25.2,11111222
Chevron,ioos:station:wmo:42372:2,2022-01-01T16:29:00Z,27.7790,-90.5190,12.5,25.2,11111222
Chevron,ioos:station:wmo:42372:2,2022-01-01T16:39:00Z,27.7790,-90.5190,12.6,25.2,11111222
Chevron,ioos:station:wmo:42372:2,2022-01-01T16:49:00Z,27.7790,-90.5190,12.6,25.2,11111222
Chevron,ioos:station:wmo:42372:2,2022-01-01T17:00:00Z,27.7790,-90.5190,12.6,25.2,11111222
Chevron,ioos:station:wmo:42372:2,2022-01-01T17:10:00Z,27.7790,-90.5190,12.5,25.2,11111222
Chevron,ioos:station:wmo:42372:2,2022-01-01T17:20:00Z,27.7790,-90.5190,12.6,25.2,11111222
Chevron,ioos:station:wmo:42372:2,2022-01-01T17:30:00Z,27.7790,-90.5190,12.5,25.2,11111222
Chevron,ioos:station:wmo:42372:2,2022-01-01T17:40:00Z,27.7790,-90.5190,12.6,25.2,11111222
Chevron,ioos:station:wmo:42372:2,2022-01-01T17:50:00Z,27.7790,-90.5190,12.7,25.2,11111222
Chevron,ioos:station:wmo:42372:2,2022-01-01T18:00:00Z,27.7790,-90.5190,12.3,25.2,11111222
Chevron,ioos:station:wmo:42372:2,2022-01-01T18:10:00Z,27.7790,-90.5190,12.6,25.2,11111222
Chevron,ioos:station:wmo:42372:2,2022-01-01T18:20:00Z,27.7790,-90.5190,12.5,25.2,11111222
Chevron,ioos:station:wmo:42372:2,2022-01-01T18:30:00Z,27.7790,-90.5190,12.5,25.2,11111222
Chevron,ioos:station:wmo:42372:2,2022-01-01T18:40:00Z,27.7790,-90.5190,12.5,25.2,11111222
Chevron,ioos:station:wmo:42372:2,2022-01-01T18:50:00Z,27.7790,-90.5190,12.5,25.2,11111222
Chevron,ioos:station:wmo:42372:2,2022-01-01T19:00:00Z,27.7790,-90.5190,12.5,25.2,11111222
Chevron,ioos:station:wmo:42372:2,2022-01-01T19:10:00Z,27.7790,-90.5190,12.3,25.2,11111222
Chevron,ioos:station:wmo:42372:2,2022-01-01T19:20:00Z,27.7790,-90.5190,12.4,25.2,11111222
Chevron,ioos:station:wmo:42372:2,2022-01-01T19:30:00Z,27.7790,-90.5190,12.5,25.2,11111222
Chevron,ioos:station:wmo:42372:2,2022-01-01T19:40:00Z,27.7790,-90.5190,12.4,25.2,11111222
Chevron,ioos:station:wmo:42372:2,2022-01-01T19:50:00Z,27.7790,-90.5190,12.4,25.2,11111222
Chevron,ioos:station:wmo:42372:2,2022-01-01T20:00:00Z,27.7790,-90.5190,12.4,25.2,11111222
Chevron,ioos:station:wmo:42372:2,2022-01-01T20:10:00Z,27.7790,-90.5190,12.3,25.2,11111222
Chevron,ioos:station:wmo:42372:2,2022-01-01T20:20:00Z,27.7790,-90.5190,12.4,25.2,11111222
Chevron,ioos:station:wmo:42372:2,2022-01-01T20:30:00Z,27.7790,-90.5190,12.4,25.2,11111222
Chevron,ioos:station:wmo:42372:2,2022-01-01T20:40:00Z,27.7790,-90.5190,12.6,25.2,11111222
Chevron,ioos:station:wmo:42372:2,2022-01-01T20:50:00Z,27.7790,-90.5190,12.5,25.2,11111222
Chevron,ioos:station:wmo:42372:2,2022-01-01T21:00:00Z,27.7790,-90.5190,12.6,25.2,11111222
Chevron,ioos:station:wmo:42372:2,2022-01-01T21:10:00Z,27.7790,-90.5190,12.5,25.2,11111222
Chevron,ioos:station:wmo:42372:2,2022-01-01T21:20:00Z,27.7790,-90.5190,12.5,25.2,11111222
Chevron,ioos:station:wmo:42372:2,2022-01-01T21:30:00Z,27.7790,-90.5190,12.6,25.2,11111222
Chevron,ioos:station:wmo:42372:2,2022-01-01T21:40:00Z,27.7790,-90.5190,12.7,25.2,11111222
Chevron,ioos:station:wmo:42372:2,2022-01-01T21:50:00Z,27.7790,-90.5190,12.8,25.2,11111222
Chevron,ioos:station:wmo:42372:2,2022-01-01T22:00:00Z,27.7790,-90.5190,12.8,25.2,11111222
Chevron,ioos:station:wmo:42372:2,2022-01-01T22:10:00Z,27.7790,-90.5190,12.8,25.2,11111222
Chevron,ioos:station:wmo:42372:2,2022-01-01T22:20:00Z,27.7790,-90.5190,12.9,25.2,11111222
Chevron,ioos:station:wmo:42372:2,2022-01-01T22:30:00Z,27.7790,-90.5190,12.8,25.2,11111222
Chevron,ioos:station:wmo:42372:2,2022-01-01T22:40:00Z,27.7790,-90.5190,12.9,25.2,11111222
Chevron,ioos:station:wmo:42372:2,2022-01-01T22:50:00Z,27.7790,-90.5190,12.8,25.2,11111222
Chevron,ioos:station:wmo:42372:2,2022-01-01T23:00:00Z,27.7790,-90.5190,12.8,25.2,11111222
Chevron,ioos:station:wmo:42372:2,2022-01-01T23:10:00Z,27.7790,-90.5190,12.9,25.2,11111222
Chevron,ioos:station:wmo:42372:2,2022-01-01T23:20:00Z,27.7790,-90.5190,12.8,25.1,11111222
Chevron,ioos:station:wmo:42372:2,2022-01-01T23:30:00Z,27.7790,-90.5190,12.9,25.1,11111222
Chevron,ioos:station:wmo:42372:2,2022-01-01T23:40:00Z,27.7790,-90.5190,12.9,25.1,11111222
Chevron,ioos:station:wmo:42372:2,2022-01-01T23:50:00Z,27.7790,-90.5190,12.9,25.1,11111222
Chevron,ioos:station:wmo:42372:2,2022-01-02T00:00:00Z,27.7790,-90.5190,12.7,25.1,11111222
Chevron,ioos:station:wmo:42372:2,2022-01-02T00:10:00Z,27.7790,-90.5190,12.8,25.0,11111222
Chevron,ioos:station:wmo:42372:2,2022-01-02T00:20:00Z,27.7790,-90.5190,12.9,25.0,11111222
Chevron,ioos:station:wmo:42372:2,2022-01-02T00:30:00Z,27.7790,-90.5190,12.9,25.0,11111222
Chevron,ioos:station:wmo:42372:2,2022-01-02T00:40:00Z,27.7790,-90.5190,12.9,25.0,11111222
Chevron,ioos:station:wmo:42372:2,2022-01-02T00:50:00Z,27.7790,-90.5190,12.9,25.0,11111222
Chevron,ioos:station:wmo:42372:2,2022-01-02T01:00:00Z,27.7790,-90.5190,12.7,25.0,11111222
Chevron,ioos:station:wmo:42372:2,2022-01-02T01:10:00Z,27.7790,-90.5190,12.9,25.0,11111222
Chevron,ioos:station:wmo:42372:2,2022-01-02T01:20:00Z,27.7790,-90.5190,12.8,25.0,11111222
Chevron,ioos:station:wmo:42372:2,2022-01-02T01:30:00Z,27.7790,-90.5190,12.8,25.0,11111222
Chevron,ioos:station:wmo:42372:2,2022-01-02T01:40:00Z,27.7790,-90.5190,12.7,25.0,11111222
Chevron,ioos:station:wmo:42372:2,2022-01-02T01:50:00Z,27.7790,-90.5190,13.0,25.0,11111222
Chevron,ioos:station:wmo:42372:2,2022-01-02T02:00:00Z,27.7790,-90.5190,12.8,25.0,11111222
Chevron,ioos:station:wmo:42372:2,2022-01-02T02:10:00Z,27.7790,-90.5190,12.9,24.9,11111222
Chevron,ioos:station:wmo:42372:2,2022-01-02T02:20:00Z,27.7790,-90.5190,13.0,24.9,11111222
Chevron,ioos:station:wmo:42372:2,2022-01-02T02:30:00Z,27.7790,-90.5190,13.0,24.9,11111222
Chevron,ioos:station:wmo:42372:2,2022-01-02T02:40:00Z,27.7790,-90.5190,13.0,24.9,11111222
Chevron,ioos:station:wmo:42372:2,2022-01-02T02:50:00Z,27.7790,-90.5190,12.9,24.9,11111222
Chevron,ioos:station:wmo:42372:2,2022-01-02T03:00:00Z,27.7790,-90.5190,12.8,24.9,11111222
Chevron,ioos:station:wmo:42372:2,2022-01-02T03:10:00Z,27.7790,-90.5190,12.8,24.9,11111222
Chevron,ioos:station:wmo:42372:2,2022-01-02T03:20:00Z,27.7790,-90.5190,12.9,24.9,11111222
Chevron,ioos:station:wmo:42372:2,2022-01-02T03:30:00Z,27.7790,-90.5190,12.9,24.9,11111222
Chevron,ioos:station:wmo:42372:2,2022-01-02T03:40:00Z,27.7790,-90.5190,12.8,24.9,11111222
Chevron,ioos:station:wmo:42372:2,2022-01-02T03:50:00Z,27.7790,-90.5190,12.8,24.9,11111222
Chevron,ioos:station:wmo:42372:2,2022-01-02T04:00:00Z,27.7790,-90.5190,12.9,24.9,11111222
Chevron,ioos:station:wmo:42372:2,2022-01-02T04:10:00Z,27.7790,-90.5190,12.9,24.8,11111222
Chevron,ioos:station:wmo:42372:2,2022-01-02T04:20:00Z,27.7790,-90.5190,13.0,24.8,11111222
Chevron,ioos:station:wmo:42372:2,2022-01-02T04:30:00Z,27.7790,-90.5190,12.9,24.8,11111222
Chevron,ioos:station:wmo:42372:2,2022-01-02T04:40:00Z,27.7790,-90.5190,12.6,24.8,11111222
Chevron,ioos:station:wmo:42372:2,2022-01-02T04:50:00Z,27.7790,-90.5190,12.8,24.8,11111222
Chevron,ioos:station:wmo:42372:2,2022-01-02T05:00:00Z,27.7790,-90.5190,12.9,24.8,11111222
Chevron,ioos:station:wmo:42372:2,2022-01-02T05:10:00Z,27.7790,-90.5190,12.9,24.8,11111222
Chevron,ioos:station:wmo:42372:2,2022-01-02T05:20:00Z,27.7790,-90.5190,12.7,24.8,11111222
Chevron,ioos:station:wmo:42372:2,2022-01-02T05:30:00Z,27.7790,-90.5190,12.8,24.8,11111222
Chevron,ioos:station:wmo:42372:2,2022-01-02T05:40:00Z,27.7790,-90.5190,12.8,24.8,11111222
Chevron,ioos:station:wmo:42372:2,2022-01-02T05:50:00Z,27.7790,-90.5190,12.8,24.8,11111222
Chevron,ioos:station:wmo:42372:2,2022-01-02T06:00:00Z,27.7790,-90.5190,12.7,24.8,11111222
Chevron,ioos:station:wmo:42372:2,2022-01-02T06:10:00Z,27.7790,-90.5190,12.8,24.8,11111222
Chevron,ioos:station:wmo:42372:2,2022-01-02T06:20:00Z,27.7790,-90.5190,12.8,24.8,11111222
Chevron,ioos:station:wmo:42372:2,2022-01-02T06:30:00Z,27.7790,-90.5190,12.7,24.8,11111222
Chevron,ioos:station:wmo:42372:2,2022-01-02T06:40:00Z,27.7790,-90.5190,12.7,24.8,11111222
Chevron,ioos:station:wmo:42372:2,2022-01-02T06:50:00Z,27.7790,-90.5190,12.8,24.8,11111222
Chevron,ioos:station:wmo:42372:2,2022-01-02T07:00:00Z,27.7790,-90.5190,12.8,24.8,11111222
Chevron,ioos:station:wmo:42372:2,2022-01-02T07:10:00Z,27.7790,-90.5190,12.7,24.8,11111222
Chevron,ioos:station:wmo:42372:2,2022-01-02T07:20:00Z,27.7790,-90.5190,12.7,24.8,11111222
Chevron,ioos:station:wmo:42372:2,2022-01-02T07:30:00Z,27.7790,-90.5190,12.7,24.8,11111222
Chevron,ioos:station:wmo:42372:2,2022-01-02T07:40:00Z,27.7790,-90.5190,12.6,24.8,11111222
Chevron,ioos:station:wmo:42372:2,2022-01-02T07:50:00Z,27.7790,-90.5190,12.7,24.8,11111222
Chevron,ioos:station:wmo:42372:2,2022-01-02T08:00:00Z,27.7790,-90.5190,12.8,24.8,11111222
Chevron,ioos:station:wmo:42372:2,2022-01-02T08:10:00Z,27.7790,-90.5190,12.6,24.9,11111222
Chevron,ioos:station:wmo:42372:2,2022-01-02T08:20:00Z,27.7790,-90.5190,12.5,24.9,11111222
Chevron,ioos:station:wmo:42372:2,2022-01-02T08:30:00Z,27.7790,-90.5190,12.7,24.9,11111222
Chevron,ioos:station:wmo:42372:2,2022-01-02T08:40:00Z,27.7790,-90.5190,12.5,24.9,11111222
Chevron,ioos:station:wmo:42372:2,2022-01-02T08:50:00Z,27.7790,-90.5190,12.8,24.9,11111222
Chevron,ioos:station:wmo:42372:2,2022-01-02T09:00:00Z,27.7790,-90.5190,12.6,24.9,11111222
Chevron,ioos:station:wmo:42372:2,2022-01-02T09:10:00Z,27.7790,-90.5190,12.6,24.9,11111222
Chevron,ioos:station:wmo:42372:2,2022-01-02T09:20:00Z,27.7790,-90.5190,12.6,24.9,11111222
Chevron,ioos:station:wmo:42372:2,2022-01-02T09:30:00Z,27.7790,-90.5190,12.6,24.9,11111222
Chevron,ioos:station:wmo:42372:2,2022-01-02T09:40:00Z,27.7790,-90.5190,12.6,24.9,11111222
Chevron,ioos:station:wmo:42372:2,2022-01-02T09:50:00Z,27.7790,-90.5190,12.5,24.9,11111222
Chevron,ioos:station:wmo:42372:2,2022-01-02T10:00:00Z,27.7790,-90.5190,12.7,24.9,11111222
Chevron,ioos:station:wmo:42372:2,2022-01-02T10:10:00Z,27.7790,-90.5190,12.7,24.9,11111222
Chevron,ioos:station:wmo:42372:2,2022-01-02T10:20:00Z,27.7790,-90.5190,12.4,24.9,11111222
Chevron,ioos:station:wmo:42372:2,2022-01-02T10:30:00Z,27.7790,-90.5190,12.6,24.9,11111222
Chevron,ioos:station:wmo:42372:2,2022-01-02T10:40:00Z,27.7790,-90.5190,12.6,24.9,11111222
Chevron,ioos:station:wmo:42372:2,2022-01-02T10:50:00Z,27.7790,-90.5190,12.5,24.9,11111222
Chevron,ioos:station:wmo:42372:2,2022-01-02T11:00:00Z,27.7790,-90.5190,12.5,24.9,11111222
Chevron,ioos:station:wmo:42372:2,2022-01-02T11:10:00Z,27.7790,-90.5190,12.6,24.9,11111222
Chevron,ioos:station:wmo:42372:2,2022-01-02T11:20:00Z,27.7790,-90.5190,12.5,24.9,11111222
Chevron,ioos:station:wmo:42372:2,2022-01-02T11:30:00Z,27.7790,-90.5190,12.7,24.9,11111222
Chevron,ioos:station:wmo:42372:2,2022-01-02T11:40:00Z,27.7790,-90.5190,12.4,24.9,11111222
Chevron,ioos:station:wmo:42372:2,2022-01-02T11:50:00Z,27.7790,-90.5190,12.5,24.9,11111222
Chevron,ioos:station:wmo:42372:2,2022-01-02T12:00:00Z,27.7790,-90.5190,12.7,24.9,11111222
Chevron,ioos:station:wmo:42372:2,2022-01-02T12:10:00Z,27.7790,-90.5190,12.6,24.9,11111222
Chevron,ioos:station:wmo:42372:2,2022-01-02T12:20:00Z,27.7790,-90.5190,12.6,24.9,11111222
Chevron,ioos:station:wmo:42372:2,2022-01-02T12:30:00Z,27.7790,-90.5190,12.4,24.9,11111222
Chevron,ioos:station:wmo:42372:2,2022-01-02T12:40:00Z,27.7790,-90.5190,12.5,24.9,11111222
Chevron,ioos:station:wmo:42372:2,2022-01-02T12:50:00Z,27.7790,-90.5190,12.6,24.9,11111222
Chevron,ioos:station:wmo:42372:2,2022-01-02T13:00:00Z,27.7790,-90.5190,12.4,24.9,11111222
Chevron,ioos:station:wmo:42372:2,2022-01-02T13:10:00Z,27.7790,-90.5190,12.6,24.9,11111222
Chevron,ioos:station:wmo:42372:2,2022-01-02T13:20:00Z,27.7790,-90.5190,12.5,24.9,11111222
Chevron,ioos:station:wmo:42372:2,2022-01-02T13:30:00Z,27.7790,-90.5190,12.7,24.9,11111222
Chevron,ioos:station:wmo:42372:2,2022-01-02T13:40:00Z,27.7790,-90.5190,12.5,24.9,11111222
Chevron,ioos:station:wmo:42372:2,2022-01-02T13:50:00Z,27.7790,-90.5190,12.6,24.9,11111222
Chevron,ioos:station:wmo:42372:2,2022-01-02T14:00:00Z,27.7790,-90.5190,12.6,24.9,11111222
Chevron,ioos:station:wmo:42372:2,2022-01-02T14:10:00Z,27.7790,-90.5190,12.7,24.9,11111222
Chevron,ioos:station:wmo:42372:2,2022-01-02T14:20:00Z,27.7790,-90.5190,12.6,24.9,11111222
Chevron,ioos:station:wmo:42372:2,2022-01-02T14:30:00Z,27.7790,-90.5190,12.6,24.9,11111222
Chevron,ioos:station:wmo:42372:2,2022-01-02T14:40:00Z,27.7790,-90.5190,12.6,24.9,11111222
Chevron,ioos:station:wmo:42372:2,2022-01-02T14:50:00Z,27.7790,-90.5190,12.9,24.9,11111222
Chevron,ioos:station:wmo:42372:2,2022-01-02T15:00:00Z,27.7790,-90.5190,12.7,24.8,11111222
Chevron,ioos:station:wmo:42372:2,2022-01-02T15:10:00Z,27.7790,-90.5190,12.6,24.9,11111222
Chevron,ioos:station:wmo:42372:2,2022-01-02T15:20:00Z,27.7790,-90.5190,12.7,24.9,11111222
Chevron,ioos:station:wmo:42372:2,2022-01-02T15:30:00Z,27.7790,-90.5190,12.7,24.9,11111222
Chevron,ioos:station:wmo:42372:2,2022-01-02T15:40:00Z,27.7790,-90.5190,12.4,24.9,11111222
Chevron,ioos:station:wmo:42372:2,2022-01-02T15:50:00Z,27.7790,-90.5190,12.8,24.9,11111222
Chevron,ioos:station:wmo:42372:2,2022-01-02T16:00:00Z,27.7790,-90.5190,12.9,24.9,11111222
Chevron,ioos:station:wmo:42372:2,2022-01-02T16:10:00Z,27.7790,-90.5190,12.7,24.8,11111222
Chevron,ioos:station:wmo:42372:2,2022-01-02T16:20:00Z,27.7790,-90.5190,12.8,24.9,11111222
Chevron,ioos:station:wmo:42372:2,2022-01-02T16:30:00Z,27.7790,-90.5190,12.7,24.8,11111222
Chevron,ioos:station:wmo:42372:2,2022-01-02T16:40:00Z,27.7790,-90.5190,13.0,24.9,11111222
Chevron,ioos:station:wmo:42372:2,2022-01-02T16:50:00Z,27.7790,-90.5190,12.8,24.9,11111222
Chevron,ioos:station:wmo:42372:2,2022-01-02T17:00:00Z,27.7790,-90.5190,12.8,24.8,11111222
Chevron,ioos:station:wmo:42372:2,2022-01-02T17:10:00Z,27.7790,-90.5190,12.8,24.8,11111222
Chevron,ioos:station:wmo:42372:2,2022-01-02T17:20:00Z,27.7790,-90.5190,12.7,24.8,11111222
Chevron,ioos:station:wmo:42372:2,2022-01-02T17:30:00Z,27.7790,-90.5190,12.8,24.8,11111222
Chevron,ioos:station:wmo:42372:2,2022-01-02T17:40:00Z,27.7790,-90.5190,13.0,24.8,11111222
Chevron,ioos:station:wmo:42372:2,2022-01-02T17:50:00Z,27.7790,-90.5190,12.9,24.8,11111222
Chevron,ioos:station:wmo:42372:2,2022-01-02T18:00:00Z,27.7790,-90.5190,12.8,24.8,11111222
Chevron,ioos:station:wmo:42372:2,2022-01-02T18:10:00Z,27.7790,-90.5190,12.9,24.8,11111222
Chevron,ioos:station:wmo:42372:2,2022-01-02T18:20:00Z,27.7790,-90.5190,13.0,24.8,11111222
Chevron,ioos:station:wmo:42372:2,2022-01-02T18:30:00Z,27.7790,-90.5190,12.9,24.8,11111222
Chevron,ioos:station:wmo:42372:2,2022-01-02T18:40:00Z,27.7790,-90.5190,12.9,24.8,11111222
Chevron,ioos:station:wmo:42372:2,2022-01-02T18:50:00Z,27.7790,-90.5190,12.9,24.8,11111222
Chevron,ioos:station:wmo:42372:2,2022-01-02T19:00:00Z,27.7790,-90.5190,12.9,24.8,11111222
Chevron,ioos:station:wmo:42372:2,2022-01-02T19:10:00Z,27.7790,-90.5190,12.9,24.8,11111222
Chevron,ioos:station:wmo:42372:2,2022-01-02T19:20:00Z,27.7790,-90.5190,12.8,24.8,11111222
Chevron,ioos:station:wmo:42372:2,2022-01-02T19:30:00Z,27.7790,-90.5190,13.0,24.8,11111222
Chevron,ioos:station:wmo:42372:2,2022-01-02T19:40:00Z,27.7790,-90.5190,13.0,24.8,11111222